Estherville, IA

9:23 PM CST on December 02, 2016 (GMT -0600)
Estherville Municipal

Weather History for KEST - April, 2012

Change the Weather History Date:

Saturday, April 21, 2012

  Actual Average Record
Temperature  
Mean Temperature 47 °F 49 °F  
Max Temperature 56 °F 61 °F 86 °F (1980)
Min Temperature 37 °F 37 °F 24 °F (1966)
Degree Days  
Heating Degree Days 18 16  
Month to date heating degree days 330 422  
Since 1 July heating degree days 5943 7337  
Cooling Degree Days 0 0  
Month to date cooling degree days 3 0  
Year to date cooling degree days 13 0  
Moisture  
Dew Point 40 °F    
Average Humidity 79    
Maximum Humidity 92    
Minimum Humidity 66    
Precipitation  
Precipitation 0.29 in 0.13 in 0.89 in (1992)
Month to date precipitation 3.03 2.14  
Year to date precipitation 6.07  
Sea Level Pressure  
Sea Level Pressure 29.95 in    
Wind  
Wind Speed 14 mph (South)    
Max Wind Speed 26 mph    
Max Gust Speed 31 mph    
Visibility 9 miles    
Events Rain , Thunderstorm    
T = Trace of Precipitation, MM = Missing Value Source: NWS Daily Summary

Daily Weather History Graph

Daily Weather History Graph

Search for Another Location

Airport or City:

Trip Planner

Search our weather history database for the weather conditions in past years. The results will help you decide how hot, cold, wet, or windy it might be!

Date:

Astronomy

Apr. 21, 2012 Rise Set
Actual Time 6:26 AM CDT 8:09 PM CDT
Civil Twilight 5:55 AM CDT 8:40 PM CDT
Nautical Twilight 5:18 AM CDT 9:17 PM CDT
Astronomical Twilight 4:39 AM CDT 9:57 PM CDT
Moon 6:21 AM CDT (4/21) 8:54 PM CDT (4/21)
Length of Visible Light 14h 44m
Length of Day
13h 43m
New Moon, 0% of the Moon is Illuminated
Apr 21
New Moon
Apr 29
First Quarter
May 5
Full
May 12
Last Quarter
May 20
New

Hourly Weather History & Observations

Time (CDT) Temp. Windchill Dew Point Humidity Pressure Visibility Wind Dir Wind Speed Gust Speed Precip Events Conditions
12:52 AM 39.0 °F 34.0 °F 35.1 °F 86% 30.04 in 10.0 mi South 6.9 mph - N/A   Clear
1:52 AM 39.0 °F 34.0 °F 34.0 °F 82% 30.03 in 10.0 mi South 6.9 mph - N/A   Clear
2:52 AM 37.0 °F 31.0 °F 34.0 °F 89% 30.00 in 10.0 mi South 8.1 mph - N/A   Clear
3:52 AM 37.0 °F 32.4 °F 34.0 °F 89% 30.01 in 10.0 mi South 5.8 mph - N/A   Clear
5:52 AM 42.1 °F 37.1 °F 35.1 °F 76% 30.00 in 10.0 mi SSW 8.1 mph - N/A   Scattered Clouds
6:52 AM 43.0 °F 37.7 °F 36.0 °F 76% 29.98 in 10.0 mi SSW 9.2 mph - N/A   Overcast
7:52 AM 43.0 °F 37.7 °F 37.0 °F 80% 29.99 in 9.0 mi SSW 9.2 mph - 0.00 in Rain Light Rain
8:52 AM 44.1 °F 39.0 °F 39.0 °F 82% 30.00 in 5.0 mi SSW 9.2 mph - 0.03 in Rain Rain
9:52 AM 44.1 °F 37.7 °F 39.9 °F 85% 30.01 in 7.0 mi South 12.7 mph - 0.05 in Rain Light Rain
10:52 AM 43.0 °F 34.8 °F 39.9 °F 89% 29.99 in 4.0 mi SSE 18.4 mph - 0.06 in Rain Rain
11:52 AM 44.1 °F 35.9 °F 39.9 °F 85% 29.98 in 10.0 mi SSE 19.6 mph - 0.03 in   Overcast
12:52 PM 48.9 °F - 43.0 °F 80% 29.95 in 10.0 mi SSE 23.0 mph - N/A   Scattered Clouds
1:52 PM 48.9 °F - 41.0 °F 74% 29.93 in 10.0 mi South 19.6 mph 29.9 mph N/A   Overcast
2:52 PM 52.0 °F - 42.1 °F 69% 29.92 in 10.0 mi South 23.0 mph - N/A   Overcast
3:52 PM 55.0 °F - 44.1 °F 67% 29.89 in 10.0 mi South 18.4 mph - N/A   Partly Cloudy
4:52 PM 53.1 °F - 44.1 °F 71% 29.85 in 10.0 mi SE 19.6 mph - N/A   Overcast
5:03 PM 51.8 °F - 44.6 °F 76% 29.84 in 8.0 mi ESE 12.7 mph 23.0 mph 0.01 in Rain , Thunderstorm Light Thunderstorms and Rain
5:24 PM 51.8 °F - 46.4 °F 82% 29.84 in 3.0 mi SE 18.4 mph 24.2 mph 0.12 in Rain Heavy Rain
5:52 PM 53.1 °F - 46.0 °F 77% 29.84 in 10.0 mi SE 21.9 mph - 0.12 in   Partly Cloudy
6:52 PM 51.1 °F - 46.0 °F 83% 29.86 in 10.0 mi East 11.5 mph - N/A   Scattered Clouds
7:52 PM 48.9 °F - 45.0 °F 86% 29.90 in 10.0 mi Variable 5.8 mph - N/A   Mostly Cloudy
8:52 PM 48.9 °F - 43.0 °F 80% 29.93 in 10.0 mi North 4.6 mph - N/A   Overcast
9:52 PM 48.9 °F - 39.9 °F 71% 29.95 in 10.0 mi NNW 13.8 mph - N/A   Overcast
10:52 PM 46.9 °F - 39.9 °F 77% 29.96 in 10.0 mi NNW 12.7 mph - N/A   Overcast
11:52 PM 46.0 °F 38.3 °F 39.0 °F 76% 29.98 in 10.0 mi NW 20.7 mph 26.5 mph N/A   Scattered Clouds